| time (UTC) | temp F | wind direction | speed knots | gust knots | rain 1hr in | rain 24hr in | rain mn in | humidity % | barometer mb |
| 20260902231653 | 94 | 49 | 0.9 | 2.6 | 0.00 | 0.00 | 0.00 | 50 | 1015.1 |
| 20260902231148 | 95 | 221 | 1.7 | 3.5 | 0.00 | 0.00 | 0.00 | 50 | 1014.8 |
| 20260902230643 | 95 | 258 | 1.7 | 2.6 | 0.00 | 0.00 | 0.00 | 48 | 1015.1 |
| 20260902230142 | 96 | 220 | 1.7 | 1.7 | 0.00 | 0.00 | 0.00 | 49 | 1015.1 |
| 20260902225637 | 96 | 17 | 0.0 | 1.7 | 0.00 | 0.00 | 0.00 | 48 | 1015.2 |
| 20260902225136 | 96 | 294 | 0.0 | 2.6 | 0.00 | 0.00 | 0.00 | 48 | 1014.9 |
| 20260902224635 | 95 | 258 | 0.0 | 2.6 | 0.00 | 0.00 | 0.00 | 48 | 1014.9 |
| 20260902224131 | 96 | 298 | 1.7 | 3.5 | 0.00 | 0.00 | 0.00 | 48 | 1015.0 |
| 20260902223627 | 96 | 205 | 3.5 | 3.5 | 0.00 | 0.00 | 0.00 | 47 | 1015.3 |
| 20260902223127 | 96 | 220 | 1.7 | 3.5 | 0.00 | 0.00 | 0.00 | 47 | 1015.1 |
| 20260902222626 | 96 | 308 | 1.7 | 2.6 | 0.00 | 0.00 | 0.00 | 46 | 1015.2 |
| 20260902222125 | 96 | 268 | 2.6 | 3.5 | 0.00 | 0.00 | 0.00 | 46 | 1015.1 |
| 20260902221625 | 97 | 219 | 2.6 | 4.3 | 0.00 | 0.00 | 0.00 | 46 | 1015.1 |
| 20260902221120 | 96 | 7 | 2.6 | 3.5 | 0.00 | 0.00 | 0.00 | 47 | 1015.3 |
| 20260902220615 | 96 | 263 | 0.9 | 3.5 | 0.00 | 0.00 | 0.00 | 47 | 1015.3 |
| 20260902220109 | 96 | 238 | 2.6 | 4.3 | 0.00 | 0.00 | 0.00 | 46 | 1015.3 |
| 20260902215607 | 97 | 226 | 3.5 | 6.1 | 0.00 | 0.00 | 0.00 | 45 | 1015.3 |
| 20260902215106 | 97 | 272 | 1.7 | 2.6 | 0.00 | 0.00 | 0.00 | 45 | 1015.3 |
| 20260902214601 | 97 | 204 | 1.7 | 3.5 | 0.00 | 0.00 | 0.00 | 45 | 1015.2 |
| 20260902214100 | 97 | 302 | 2.6 | 3.5 | 0.00 | 0.00 | 0.00 | 45 | 1015.2 |
| 20260902213556 | 98 | 227 | 4.3 | 5.2 | 0.00 | 0.00 | 0.00 | 45 | 1015.3 |
| 20260902213055 | 98 | 224 | 2.6 | 3.5 | 0.00 | 0.00 | 0.00 | 46 | 1015.1 |
| 20260902212551 | 97 | 181 | 0.0 | 2.6 | 0.00 | 0.00 | 0.00 | 46 | 1015.1 |
| 20260902212047 | 96 | 189 | 1.7 | 3.5 | 0.00 | 0.00 | 0.00 | 47 | 1015.3 |
| 20260902211543 | 96 | 305 | 2.6 | 4.3 | 0.00 | 0.00 | 0.00 | 46 | 1015.3 |
| 20260902211038 | 96 | 237 | 2.6 | 5.2 | 0.00 | 0.00 | 0.00 | 46 | 1015.3 |
| 20260902210538 | 96 | 308 | 1.7 | 3.5 | 0.00 | 0.00 | 0.00 | 46 | 1015.4 |
| 20260902210037 | 95 | 224 | 0.9 | 3.5 | 0.00 | 0.00 | 0.00 | 47 | 1015.4 |
| 20260902205531 | 96 | 151 | 1.7 | 2.6 | 0.00 | 0.00 | 0.00 | 46 | 1015.3 |
| 20260902205027 | 96 | 263 | 2.6 | 3.5 | 0.00 | 0.00 | 0.00 | 45 | 1015.4 |
| 20260902204527 | 97 | 64 | 1.7 | 2.6 | 0.00 | 0.00 | 0.00 | 45 | 1015.5 |
| 20260902204022 | 97 | 122 | 0.0 | 3.5 | 0.00 | 0.00 | 0.00 | 46 | 1015.6 |
| 20260902203517 | 98 | 141 | 0.0 | 2.6 | 0.00 | 0.00 | 0.00 | 45 | 1015.4 |
| 20260902203016 | 98 | 173 | 1.7 | 3.5 | 0.00 | 0.00 | 0.00 | 44 | 1015.5 |
| 20260902202513 | 98 | 220 | 1.7 | 2.6 | 0.00 | 0.00 | 0.00 | 46 | 1015.6 |
| 20260902202009 | 98 | 244 | 2.6 | 3.5 | 0.00 | 0.00 | 0.00 | 43 | 1015.6 |
| 20260902201504 | 98 | 236 | 1.7 | 2.6 | 0.00 | 0.00 | 0.00 | 45 | 1015.6 |
| 20260902201004 | 97 | 69 | 0.0 | 4.3 | 0.00 | 0.00 | 0.00 | 47 | 1015.6 |
| 20260902200459 | 97 | 285 | 1.7 | 5.2 | 0.00 | 0.00 | 0.00 | 44 | 1015.4 |
| 20260902195955 | 97 | 302 | 1.7 | 3.5 | 0.00 | 0.00 | 0.00 | 44 | 1015.6 |
| 20260902195450 | 97 | 239 | 1.7 | 5.2 | 0.00 | 0.00 | 0.00 | 44 | 1015.8 |
| 20260902194949 | 97 | 2 | 3.5 | 3.5 | 0.00 | 0.00 | 0.00 | 45 | 1015.8 |
| 20260902194448 | 97 | 239 | 1.7 | 4.3 | 0.00 | 0.00 | 0.00 | 45 | 1016.0 |
| 20260902193944 | 97 | 239 | 6.1 | 7.8 | 0.00 | 0.00 | 0.00 | 45 | 1015.7 |
| 20260902193440 | 96 | 1 | 1.7 | 2.6 | 0.00 | 0.00 | 0.00 | 45 | 1016.1 |
| 20260902192938 | 96 | 241 | 1.7 | 5.2 | 0.00 | 0.00 | 0.00 | 47 | 1016.0 |
| 20260902192437 | 96 | 235 | 3.5 | 5.2 | 0.00 | 0.00 | 0.00 | 46 | 1016.1 |
| 20260902191936 | 96 | 323 | 1.7 | 7.8 | 0.00 | 0.00 | 0.00 | 46 | 1016.2 |
| 20260902191432 | 95 | 250 | 0.9 | 3.5 | 0.00 | 0.00 | 0.00 | 47 | 1016.4 |
| 20260902190927 | 96 | 352 | 4.3 | 7.0 | 0.00 | 0.00 | 0.00 | 45 | 1016.2 |
| 20260902190423 | 96 | 223 | 0.9 | 4.3 | 0.00 | 0.00 | 0.00 | 47 | 1016.1 |
| 20260902185918 | 95 | 339 | 0.0 | 8.7 | 0.00 | 0.00 | 0.00 | 45 | 1016.3 |
| 20260902185415 | 96 | 46 | 2.6 | 7.8 | 0.00 | 0.00 | 0.00 | 45 | 1016.1 |
| 20260902184915 | 97 | 204 | 4.3 | 7.8 | 0.00 | 0.00 | 0.00 | 44 | 1016.2 |
| 20260902184410 | 97 | 262 | 1.7 | 2.6 | 0.00 | 0.00 | 0.00 | 45 | 1016.3 |
| 20260902183906 | 96 | 238 | 3.5 | 3.5 | 0.00 | 0.00 | 0.00 | 46 | 1016.3 |
| 20260902183402 | 96 | 224 | 2.6 | 2.6 | 0.00 | 0.00 | 0.00 | 45 | 1016.4 |
| 20260902182857 | 96 | 261 | 1.7 | 5.2 | 0.00 | 0.00 | 0.00 | 46 | 1016.6 |
| 20260902182354 | 95 | 30 | 6.1 | 7.0 | 0.00 | 0.00 | 0.00 | 47 | 1016.6 |
| 20260902181850 | 94 | 34 | 3.5 | 7.0 | 0.00 | 0.00 | 0.00 | 48 | 1016.7 |
| 20260902181345 | 95 | 308 | 2.6 | 5.2 | 0.00 | 0.00 | 0.00 | 47 | 1016.7 |
| 20260902180844 | 95 | 214 | 1.7 | 3.5 | 0.00 | 0.00 | 0.00 | 49 | 1016.6 |
| 20260902180340 | 95 | 229 | 2.6 | 3.5 | 0.00 | 0.00 | 0.00 | 49 | 1016.8 |
| 20260902175835 | 95 | 57 | 1.7 | 8.7 | 0.00 | 0.00 | 0.00 | 47 | 1016.9 |
| 20260902175331 | 94 | 273 | 0.0 | 5.2 | 0.00 | 0.00 | 0.00 | 49 | 1016.9 |
| 20260902174826 | 94 | 346 | 2.6 | 4.3 | 0.00 | 0.00 | 0.00 | 50 | 1016.7 |
| 20260902174324 | 94 | 178 | 1.7 | 5.2 | 0.00 | 0.00 | 0.00 | 51 | 1016.9 |
| 20260902173819 | 93 | 226 | 2.6 | 7.0 | 0.00 | 0.00 | 0.00 | 52 | 1016.9 |
| 20260902173319 | 93 | 236 | 3.5 | 6.1 | 0.00 | 0.00 | 0.00 | 53 | 1017.2 |
| 20260902172813 | 92 | 242 | 4.3 | 7.8 | 0.00 | 0.00 | 0.00 | 52 | 1017.2 |
| 20260902172312 | 93 | 237 | 3.5 | 5.2 | 0.00 | 0.00 | 0.00 | 52 | 1017.0 |
| 20260902171808 | 93 | 249 | 3.5 | 10.4 | 0.00 | 0.00 | 0.00 | 51 | 1017.1 |
| 20260902171303 | 94 | 234 | 5.2 | 6.1 | 0.00 | 0.00 | 0.00 | 51 | 1017.2 |
| 20260902170759 | 93 | 31 | 1.7 | 7.0 | 0.00 | 0.00 | 0.00 | 52 | 1017.1 |
| 20260902170254 | 93 | 354 | 3.5 | 4.3 | 0.00 | 0.00 | 0.00 | 51 | 1017.1 |
| 20260902165750 | 93 | 295 | 2.6 | 7.0 | 0.00 | 0.00 | 0.00 | 51 | 1017.3 |
| 20260902165249 | 93 | 233 | 3.5 | 7.0 | 0.00 | 0.00 | 0.00 | 51 | 1017.5 |
| 20260902164745 | 93 | 272 | 5.2 | 7.8 | 0.00 | 0.00 | 0.00 | 50 | 1017.6 |
| 20260902164244 | 93 | 138 | 3.5 | 7.0 | 0.00 | 0.00 | 0.00 | 51 | 1017.5 |
| 20260902163739 | 93 | 256 | 5.2 | 6.1 | 0.00 | 0.00 | 0.00 | 50 | 1017.6 |
| 20260902163239 | 93 | 205 | 0.9 | 4.3 | 0.00 | 0.00 | 0.00 | 52 | 1017.5 |
| 20260902162737 | 93 | 269 | 1.7 | 4.3 | 0.00 | 0.00 | 0.00 | 50 | 1017.6 |
| 20260902162232 | 93 | 236 | 1.7 | 5.2 | 0.00 | 0.00 | 0.00 | 51 | 1017.7 |
| 20260902161727 | 93 | 241 | 0.9 | 8.7 | 0.00 | 0.00 | 0.00 | 53 | 1017.5 |
| 20260902161223 | 92 | 260 | 1.7 | 3.5 | 0.00 | 0.00 | 0.00 | 52 | 1017.8 |
| 20260902160720 | 93 | 217 | 1.7 | 4.3 | 0.00 | 0.00 | 0.00 | 52 | 1017.6 |
| 20260902160219 | 93 | 282 | 1.7 | 4.3 | 0.00 | 0.00 | 0.00 | 53 | 1017.7 |
| 20260902155718 | 92 | 308 | 0.9 | 4.3 | 0.00 | 0.00 | 0.00 | 54 | 1017.7 |
| 20260902155217 | 91 | 233 | 0.0 | 4.3 | 0.00 | 0.00 | 0.00 | 54 | 1017.6 |
| 20260902154713 | 91 | 263 | 5.2 | 5.2 | 0.00 | 0.00 | 0.00 | 54 | 1017.8 |
| 20260902154212 | 91 | 328 | 2.6 | 6.1 | 0.00 | 0.00 | 0.00 | 55 | 1017.7 |
| 20260902153712 | 91 | 263 | 2.6 | 4.3 | 0.00 | 0.00 | 0.00 | 55 | 1018.0 |
| 20260902153212 | 91 | 257 | 1.7 | 4.3 | 0.00 | 0.00 | 0.00 | 55 | 1018.0 |
| 20260902152708 | 91 | 307 | 2.6 | 4.3 | 0.00 | 0.00 | 0.00 | 56 | 1018.0 |
| 20260902152204 | 91 | 153 | 0.9 | 3.5 | 0.00 | 0.00 | 0.00 | 57 | 1017.9 |
| 20260902151659 | 91 | 0 | 0.0 | 3.5 | 0.00 | 0.00 | 0.00 | 57 | 1017.7 |
| 20260902151154 | 90 | 229 | 1.7 | 2.6 | 0.00 | 0.00 | 0.00 | 57 | 1017.9 |
| 20260902150649 | 89 | 305 | 1.7 | 4.3 | 0.00 | 0.00 | 0.00 | 58 | 1018.0 |
| 20260902150145 | 89 | 227 | 2.6 | 5.2 | 0.00 | 0.00 | 0.00 | 59 | 1018.0 |
| 20260902145644 | 90 | 3 | 2.6 | 8.7 | 0.00 | 0.00 | 0.00 | 58 | 1018.0 |
| 20260902145144 | 89 | 108 | 0.0 | 1.7 | 0.00 | 0.00 | 0.00 | 59 | 1017.9 |
| 20260902144640 | 89 | 229 | 1.7 | 1.7 | 0.00 | 0.00 | 0.00 | 61 | 1017.9 |
| 20260902144136 | 88 | 318 | 1.7 | 4.3 | 0.00 | 0.00 | 0.00 | 61 | 1017.9 |
| 20260902143631 | 88 | 259 | 0.9 | 3.5 | 0.00 | 0.00 | 0.00 | 62 | 1017.9 |
| 20260902143126 | 88 | 337 | 1.7 | 3.5 | 0.00 | 0.00 | 0.00 | 62 | 1017.9 |
| 20260902142621 | 87 | 275 | 1.7 | 3.5 | 0.00 | 0.00 | 0.00 | 62 | 1017.8 |
| 20260902142117 | 87 | 308 | 0.0 | 2.6 | 0.00 | 0.00 | 0.00 | 62 | 1017.8 |
| 20260902141616 | 87 | 124 | 0.0 | 2.6 | 0.00 | 0.00 | 0.00 | 63 | 1017.6 |
| 20260902141112 | 86 | 213 | 1.7 | 5.2 | 0.00 | 0.00 | 0.00 | 63 | 1017.7 |
| 20260902140607 | 86 | 255 | 1.7 | 7.8 | 0.00 | 0.00 | 0.00 | 64 | 1017.8 |
| 20260902140108 | 86 | 301 | 1.7 | 3.5 | 0.00 | 0.00 | 0.00 | 64 | 1017.9 |
| 20260902135607 | 86 | 244 | 2.6 | 4.3 | 0.00 | 0.00 | 0.00 | 64 | 1017.8 |
| 20260902135102 | 86 | 232 | 3.5 | 4.3 | 0.00 | 0.00 | 0.00 | 64 | 1017.9 |
| 20260902134558 | 85 | 239 | 0.0 | 3.5 | 0.00 | 0.00 | 0.00 | 66 | 1017.9 |
| 20260902134057 | 85 | 328 | 3.5 | 3.5 | 0.00 | 0.00 | 0.00 | 65 | 1018.0 |
| 20260902133552 | 85 | 247 | 0.9 | 3.5 | 0.00 | 0.00 | 0.00 | 68 | 1018.1 |
| 20260902133047 | 84 | 252 | 3.5 | 3.5 | 0.00 | 0.00 | 0.00 | 70 | 1018.0 |
| 20260902132542 | 84 | 7 | 0.0 | 0.9 | 0.00 | 0.00 | 0.00 | 70 | 1018.0 |
| 20260902132038 | 83 | 215 | 0.0 | 0.9 | 0.00 | 0.00 | 0.00 | 73 | 1018.0 |
| 20260902131534 | 82 | 279 | 0.0 | 0.9 | 0.00 | 0.00 | 0.00 | 74 | 1018.0 |
| 20260902131034 | 82 | 241 | 0.0 | 1.7 | 0.00 | 0.00 | 0.00 | 75 | 1018.1 |
| 20260902130530 | 81 | 122 | 0.0 | 1.7 | 0.00 | 0.00 | 0.00 | 75 | 1017.8 |
| 20260902130025 | 80 | 114 | 0.0 | 1.7 | 0.00 | 0.00 | 0.00 | 77 | 1017.9 |
| 20260902125521 | 79 | 246 | 0.0 | 1.7 | 0.00 | 0.00 | 0.00 | 78 | 1017.8 |
| 20260902125016 | 78 | 240 | 0.0 | 0.0 | 0.00 | 0.00 | 0.00 | 80 | 1017.9 |
| 20260902124512 | 78 | 99 | 0.0 | 0.0 | 0.00 | 0.00 | 0.00 | 82 | 1017.7 |
| 20260902124012 | 77 | 107 | 0.0 | 0.0 | 0.00 | 0.00 | 0.00 | 82 | 1017.8 |
| 20260902123508 | 77 | 106 | 0.0 | 0.9 | 0.00 | 0.00 | 0.00 | 83 | 1018.0 |
| 20260902123008 | 77 | 107 | 0.9 | 1.7 | 0.00 | 0.00 | 0.00 | 83 | 1017.6 |
| 20260902122502 | 77 | 7 | 0.9 | 1.7 | 0.00 | 0.00 | 0.00 | 83 | 1017.6 |
| 20260902121958 | 76 | 93 | 0.0 | 0.9 | 0.00 | 0.00 | 0.00 | 84 | 1017.9 |
| 20260902121453 | 76 | 7 | 0.0 | 0.9 | 0.00 | 0.00 | 0.00 | 86 | 1017.5 |
| 20260902120948 | 76 | 14 | 0.0 | 0.9 | 0.00 | 0.00 | 0.00 | 86 | 1017.6 |
| 20260902120444 | 76 | 107 | 0.0 | 0.9 | 0.00 | 0.00 | 0.00 | 86 | 1017.7 |
| 20260902115944 | 76 | 11 | 0.0 | 1.7 | 0.00 | 0.00 | 0.00 | 85 | 1017.6 |
| 20260902115440 | 76 | 42 | 0.0 | 0.9 | 0.00 | 0.00 | 0.00 | 86 | 1017.5 |
| 20260902114937 | 76 | 103 | 0.0 | 1.7 | 0.00 | 0.00 | 0.00 | 86 | 1017.3 |
| 20260902114432 | 76 | 11 | 0.0 | 1.7 | 0.00 | 0.00 | 0.00 | 86 | 1017.5 |
| 20260902113932 | 75 | 9 | 1.7 | 2.6 | 0.00 | 0.00 | 0.00 | 87 | 1017.5 |
| 20260902113428 | 75 | 35 | 0.0 | 1.7 | 0.00 | 0.00 | 0.00 | 87 | 1017.3 |
| 20260902112927 | 75 | 16 | 2.6 | 3.5 | 0.00 | 0.00 | 0.00 | 87 | 1017.3 |
| 20260902112424 | 75 | 7 | 2.6 | 3.5 | 0.00 | 0.00 | 0.00 | 88 | 1017.1 |
| 20260902111919 | 74 | 50 | 0.0 | 0.9 | 0.00 | 0.00 | 0.00 | 89 | 1017.1 |
| 20260902111416 | 75 | 97 | 0.0 | 0.9 | 0.00 | 0.00 | 0.00 | 88 | 1017.1 |
| 20260902110912 | 75 | 27 | 0.0 | 0.9 | 0.00 | 0.00 | 0.00 | 87 | 1017.1 |
| 20260902110407 | 75 | 340 | 0.9 | 3.5 | 0.00 | 0.00 | 0.00 | 88 | 1017.1 |
| 20260902105907 | 75 | 0 | 0.0 | 1.7 | 0.00 | 0.00 | 0.00 | 88 | 1017.2 |
| 20260902105402 | 75 | 18 | 3.5 | 3.5 | 0.00 | 0.00 | 0.00 | 88 | 1017.0 |
| 20260902104858 | 75 | 15 | 1.7 | 1.7 | 0.00 | 0.00 | 0.00 | 88 | 1017.2 |
| 20260902104354 | 75 | 107 | 0.0 | 1.7 | 0.00 | 0.00 | 0.00 | 88 | 1017.1 |
| 20260902103853 | 75 | 338 | 1.7 | 1.7 | 0.00 | 0.00 | 0.00 | 88 | 1017.2 |
| 20260902103349 | 75 | 359 | 1.7 | 3.5 | 0.00 | 0.00 | 0.00 | 88 | 1017.2 |
| 20260902102849 | 75 | 27 | 0.9 | 0.9 | 0.00 | 0.00 | 0.00 | 87 | 1017.1 |
| 20260902102347 | 75 | 25 | 1.7 | 2.6 | 0.00 | 0.00 | 0.00 | 88 | 1017.1 |
| 20260902101842 | 75 | 34 | 2.6 | 3.5 | 0.00 | 0.00 | 0.00 | 88 | 1017.1 |
| 20260902101336 | 75 | 8 | 1.7 | 2.6 | 0.00 | 0.00 | 0.00 | 88 | 1017.2 |
| 20260902100836 | 75 | 13 | 3.5 | 3.5 | 0.00 | 0.00 | 0.00 | 88 | 1016.9 |
| 20260902100336 | 75 | 13 | 3.5 | 3.5 | 0.00 | 0.00 | 0.00 | 88 | 1016.9 |
| 20260902095831 | 75 | 359 | 1.7 | 1.7 | 0.00 | 0.00 | 0.00 | 89 | 1016.8 |
| 20260902095326 | 75 | 14 | 0.0 | 0.0 | 0.00 | 0.00 | 0.00 | 88 | 1016.9 |
| 20260902094825 | 75 | 17 | 1.7 | 1.7 | 0.00 | 0.00 | 0.00 | 88 | 1016.9 |
| 20260902094322 | 75 | 22 | 0.0 | 1.7 | 0.00 | 0.00 | 0.00 | 87 | 1016.9 |
| 20260902093821 | 75 | 300 | 0.0 | 1.7 | 0.00 | 0.00 | 0.00 | 86 | 1016.8 |
| 20260902093316 | 75 | 8 | 0.0 | 2.6 | 0.00 | 0.00 | 0.00 | 87 | 1017.0 |
| 20260902092815 | 75 | 4 | 1.7 | 3.5 | 0.00 | 0.00 | 0.00 | 87 | 1016.9 |
| 20260902092311 | 75 | 15 | 1.7 | 3.5 | 0.00 | 0.00 | 0.00 | 88 | 1016.8 |
| 20260902091810 | 75 | 34 | 1.7 | 2.6 | 0.00 | 0.00 | 0.00 | 88 | 1016.8 |
| 20260902091307 | 75 | 10 | 1.7 | 1.7 | 0.00 | 0.00 | 0.00 | 87 | 1016.9 |
| 20260902090803 | 75 | 35 | 0.0 | 1.7 | 0.00 | 0.00 | 0.00 | 87 | 1016.8 |
| 20260902090302 | 76 | 103 | 0.0 | 0.0 | 0.00 | 0.00 | 0.00 | 86 | 1016.7 |
| 20260902085801 | 76 | 10 | 2.6 | 2.6 | 0.00 | 0.00 | 0.00 | 86 | 1016.7 |
| 20260902085257 | 75 | 14 | 1.7 | 2.6 | 0.00 | 0.00 | 0.00 | 86 | 1016.7 |
| 20260902084752 | 75 | 14 | 3.5 | 3.5 | 0.00 | 0.00 | 0.00 | 86 | 1016.6 |
| 20260902084248 | 76 | 21 | 0.0 | 0.9 | 0.00 | 0.00 | 0.00 | 86 | 1016.6 |
| 20260902083743 | 76 | 27 | 1.7 | 3.5 | 0.00 | 0.00 | 0.00 | 85 | 1016.3 |
| 20260902083237 | 76 | 25 | 1.7 | 2.6 | 0.00 | 0.00 | 0.00 | 85 | 1016.5 |
| 20260902082732 | 76 | 12 | 1.7 | 3.5 | 0.00 | 0.00 | 0.00 | 85 | 1016.2 |
| 20260902082229 | 76 | 11 | 1.7 | 2.6 | 0.00 | 0.00 | 0.00 | 85 | 1016.4 |
| 20260902081725 | 76 | 30 | 2.6 | 2.6 | 0.00 | 0.00 | 0.00 | 85 | 1016.4 |
| 20260902081221 | 76 | 11 | 0.9 | 1.7 | 0.00 | 0.00 | 0.00 | 85 | 1016.2 |
| 20260902080715 | 76 | 16 | 3.5 | 3.5 | 0.00 | 0.00 | 0.00 | 84 | 1016.3 |
| 20260902080213 | 76 | 6 | 2.6 | 3.5 | 0.00 | 0.00 | 0.00 | 85 | 1016.2 |
| 20260902075712 | 76 | 14 | 0.0 | 0.9 | 0.00 | 0.00 | 0.00 | 85 | 1016.2 |
| 20260902075208 | 76 | 0 | 0.0 | 2.6 | 0.00 | 0.00 | 0.00 | 85 | 1016.2 |
| 20260902074708 | 76 | 24 | 0.9 | 1.7 | 0.00 | 0.00 | 0.00 | 85 | 1016.2 |
| 20260902074204 | 76 | 354 | 0.9 | 2.6 | 0.00 | 0.00 | 0.00 | 85 | 1016.1 |
| 20260902073659 | 75 | 22 | 0.9 | 1.7 | 0.00 | 0.00 | 0.00 | 86 | 1016.2 |
| 20260902073155 | 75 | 22 | 0.0 | 0.0 | 0.00 | 0.00 | 0.00 | 86 | 1016.1 |
| 20260902072651 | 76 | 14 | 0.0 | 0.9 | 0.00 | 0.00 | 0.00 | 85 | 1016.0 |
| 20260902072147 | 76 | 10 | 0.9 | 0.9 | 0.00 | 0.00 | 0.00 | 85 | 1016.1 |
| 20260902071643 | 76 | 349 | 0.9 | 1.7 | 0.00 | 0.00 | 0.00 | 85 | 1015.9 |
| 20260902071138 | 76 | 354 | 1.7 | 1.7 | 0.00 | 0.00 | 0.00 | 85 | 1016.0 |
| 20260902070634 | 76 | 34 | 0.0 | 0.0 | 0.00 | 0.00 | 0.00 | 84 | 1016.2 |
| 20260902070133 | 76 | 116 | 0.0 | 0.9 | 0.00 | 0.00 | 0.00 | 84 | 1016.3 |
| 20260902065632 | 76 | 312 | 0.0 | 1.7 | 0.00 | 0.00 | 0.00 | 84 | 1016.3 |
| 20260902065128 | 77 | 9 | 0.9 | 2.6 | 0.00 | 0.00 | 0.00 | 83 | 1016.3 |
| 20260902064624 | 77 | 15 | 0.0 | 1.7 | 0.00 | 0.00 | 0.00 | 82 | 1016.2 |
| 20260902064119 | 78 | 354 | 0.9 | 3.5 | 0.00 | 0.00 | 0.00 | 81 | 1016.1 |
| 20260902063614 | 78 | 13 | 1.7 | 3.5 | 0.00 | 0.00 | 0.00 | 80 | 1016.1 |
| 20260902063109 | 77 | 18 | 2.6 | 2.6 | 0.00 | 0.00 | 0.00 | 81 | 1016.1 |
| 20260902062608 | 77 | 86 | 0.0 | 0.0 | 0.00 | 0.00 | 0.00 | 81 | 1016.2 |
| 20260902062103 | 78 | 352 | 0.0 | 1.7 | 0.00 | 0.00 | 0.00 | 80 | 1016.1 |
| 20260902061602 | 78 | 10 | 2.6 | 3.5 | 0.00 | 0.00 | 0.00 | 80 | 1016.3 |
| 20260902061058 | 77 | 16 | 2.6 | 2.6 | 0.00 | 0.00 | 0.00 | 81 | 1016.0 |
| 20260902060554 | 78 | 347 | 0.0 | 0.9 | 0.00 | 0.00 | 0.00 | 81 | 1016.2 |
| 20260902060051 | 78 | 11 | 1.7 | 1.7 | 0.00 | 0.00 | 0.00 | 80 | 1016.1 |
| 20260902055546 | 78 | 10 | 0.0 | 2.6 | 0.00 | 0.00 | 0.00 | 80 | 1016.4 |
| 20260902055041 | 78 | 20 | 1.7 | 2.6 | 0.00 | 0.00 | 0.00 | 80 | 1016.4 |
| 20260902054536 | 77 | 347 | 0.9 | 1.7 | 0.00 | 0.00 | 0.00 | 81 | 1016.2 |
| 20260902054032 | 78 | 107 | 0.0 | 0.0 | 0.00 | 0.00 | 0.00 | 82 | 1016.1 |
| 20260902053533 | 78 | 114 | 0.0 | 1.7 | 0.00 | 0.00 | 0.00 | 81 | 1016.1 |
| 20260902053032 | 78 | 293 | 0.0 | 1.7 | 0.00 | 0.00 | 0.00 | 80 | 1016.1 |
| 20260902052527 | 78 | 18 | 0.0 | 0.9 | 0.00 | 0.00 | 0.00 | 80 | 1016.3 |
| 20260902052023 | 78 | 15 | 1.7 | 1.7 | 0.00 | 0.00 | 0.00 | 79 | 1016.5 |
| 20260902051523 | 79 | 156 | 0.0 | 0.9 | 0.00 | 0.00 | 0.00 | 79 | 1016.4 |
| 20260902051021 | 79 | 10 | 1.7 | 2.6 | 0.00 | 0.00 | 0.00 | 78 | 1016.3 |
| 20260902050516 | 79 | 125 | 0.0 | 0.0 | 0.00 | 0.00 | 0.00 | 79 | 1016.4 |
| 20260902050012 | 79 | 121 | 0.0 | 0.9 | 0.00 | 0.00 | 0.00 | 78 | 1016.4 |
| 20260902045507 | 79 | 50 | 0.0 | 3.5 | 0.00 | 0.00 | 0.00 | 77 | 1016.2 |
| 20260902045004 | 79 | 7 | 1.7 | 2.6 | 0.00 | 0.00 | 0.00 | 76 | 1016.3 |
| 20260902044503 | 79 | 22 | 1.7 | 2.6 | 0.00 | 0.00 | 0.00 | 76 | 1016.3 |
| 20260902043959 | 80 | 13 | 2.6 | 2.6 | 0.00 | 0.00 | 0.00 | 76 | 1016.3 |
| 20260902043454 | 80 | 15 | 2.6 | 2.6 | 0.00 | 0.00 | 0.00 | 76 | 1016.1 |
| 20260902042949 | 80 | 353 | 1.7 | 2.6 | 0.00 | 0.00 | 0.00 | 76 | 1016.2 |
| 20260902042449 | 80 | 352 | 0.9 | 2.6 | 0.00 | 0.00 | 0.00 | 76 | 1016.3 |
| 20260902041945 | 80 | 13 | 1.7 | 3.5 | 0.00 | 0.00 | 0.00 | 76 | 1016.2 |
| 20260902041444 | 80 | 6 | 1.7 | 2.6 | 0.00 | 0.00 | 0.00 | 76 | 1016.2 |
| 20260902040944 | 80 | 82 | 0.0 | 0.0 | 0.00 | 0.00 | 0.00 | 77 | 1016.3 |
| 20260902040439 | 80 | 328 | 0.0 | 0.0 | 0.00 | 0.00 | 0.00 | 76 | 1016.3 |
| 20260902035937 | 80 | 48 | 0.9 | 2.6 | 0.00 | 0.00 | 0.00 | 74 | 1016.2 |
| 20260902035433 | 80 | 355 | 1.7 | 2.6 | 0.00 | 0.00 | 0.00 | 75 | 1016.3 |
| 20260902034932 | 81 | 2 | 1.7 | 1.7 | 0.00 | 0.00 | 0.00 | 75 | 1016.4 |
| 20260902034422 | 81 | 12 | 1.7 | 2.6 | 0.00 | 0.00 | 0.00 | 74 | 1016.4 |
| 20260902033921 | 81 | 22 | 1.7 | 2.6 | 0.00 | 0.00 | 0.00 | 75 | 1016.3 |
| 20260902033420 | 81 | 23 | 1.7 | 1.7 | 0.00 | 0.00 | 0.00 | 74 | 1016.4 |
| 20260902032919 | 81 | 31 | 0.0 | 1.7 | 0.00 | 0.00 | 0.00 | 75 | 1016.2 |
| 20260902032414 | 81 | 13 | 1.7 | 2.6 | 0.00 | 0.00 | 0.00 | 74 | 1016.3 |
| 20260902031909 | 81 | 7 | 1.7 | 1.7 | 0.00 | 0.00 | 0.00 | 74 | 1016.4 |
| 20260902031404 | 81 | 19 | 1.7 | 2.6 | 0.00 | 0.00 | 0.00 | 74 | 1016.4 |
| 20260902030901 | 81 | 107 | 0.0 | 0.9 | 0.00 | 0.00 | 0.00 | 76 | 1016.3 |
| 20260902030354 | 81 | 4 | 0.0 | 1.7 | 0.00 | 0.00 | 0.00 | 74 | 1016.2 |
| 20260902025853 | 82 | 9 | 0.0 | 2.6 | 0.00 | 0.00 | 0.00 | 74 | 1016.2 |
| 20260902025350 | 82 | 359 | 0.9 | 2.6 | 0.00 | 0.00 | 0.00 | 73 | 1016.2 |
| 20260902024849 | 82 | 4 | 0.0 | 1.7 | 0.00 | 0.00 | 0.00 | 74 | 1016.2 |
| 20260902024345 | 82 | 346 | 1.7 | 1.7 | 0.00 | 0.00 | 0.00 | 73 | 1016.3 |
| 20260902023840 | 82 | 0 | 1.7 | 1.7 | 0.00 | 0.00 | 0.00 | 73 | 1016.1 |
| 20260902023336 | 82 | 10 | 0.0 | 1.7 | 0.00 | 0.00 | 0.00 | 74 | 1016.1 |
| 20260902022834 | 82 | 357 | 0.0 | 1.7 | 0.00 | 0.00 | 0.00 | 72 | 1016.2 |
| 20260902022330 | 82 | 16 | 1.7 | 2.6 | 0.00 | 0.00 | 0.00 | 73 | 1016.2 |
| 20260902021827 | 82 | 113 | 0.0 | 0.9 | 0.00 | 0.00 | 0.00 | 75 | 1016.1 |
| 20260902021326 | 82 | 10 | 0.0 | 0.0 | 0.00 | 0.00 | 0.00 | 73 | 1016.4 |
| 20260902020822 | 82 | 350 | 0.0 | 0.0 | 0.00 | 0.00 | 0.00 | 73 | 1016.2 |
| 20260902020319 | 82 | 23 | 1.7 | 2.6 | 0.00 | 0.00 | 0.00 | 72 | 1016.2 |
| 20260902015814 | 82 | 328 | 0.0 | 0.0 | 0.00 | 0.00 | 0.00 | 75 | 1016.2 |
| 20260902015310 | 82 | 110 | 0.0 | 1.7 | 0.00 | 0.00 | 0.00 | 75 | 1016.2 |
| 20260902014805 | 83 | 122 | 0.0 | 1.7 | 0.00 | 0.00 | 0.00 | 75 | 1016.4 |
| 20260902014302 | 83 | 129 | 0.0 | 1.7 | 0.00 | 0.00 | 0.00 | 74 | 1016.3 |
| 20260902013800 | 83 | 130 | 0.0 | 0.9 | 0.00 | 0.00 | 0.00 | 73 | 1016.2 |
| 20260902013256 | 84 | 117 | 0.0 | 0.9 | 0.00 | 0.00 | 0.00 | 72 | 1016.1 |
| 20260902012751 | 84 | 68 | 0.0 | 0.9 | 0.00 | 0.00 | 0.00 | 70 | 1016.1 |
| 20260902012247 | 84 | 348 | 1.7 | 1.7 | 0.00 | 0.00 | 0.00 | 68 | 1016.1 |
| 20260902011742 | 85 | 111 | 0.0 | 1.7 | 0.00 | 0.00 | 0.00 | 68 | 1015.8 |
| 20260902011242 | 85 | 32 | 0.9 | 2.6 | 0.00 | 0.00 | 0.00 | 65 | 1016.0 |
| 20260902010741 | 85 | 38 | 1.7 | 3.5 | 0.00 | 0.00 | 0.00 | 66 | 1015.9 |
| 20260902010237 | 86 | 17 | 1.7 | 2.6 | 0.00 | 0.00 | 0.00 | 66 | 1015.7 |
| 20260902005736 | 86 | 25 | 2.6 | 3.5 | 0.00 | 0.00 | 0.00 | 66 | 1015.6 |
| 20260902005231 | 86 | 47 | 2.6 | 2.6 | 0.00 | 0.00 | 0.00 | 65 | 1015.7 |
| 20260902004731 | 86 | 73 | 0.0 | 2.6 | 0.00 | 0.00 | 0.00 | 64 | 1015.8 |
| 20260902004226 | 86 | 39 | 1.7 | 3.5 | 0.00 | 0.00 | 0.00 | 64 | 1015.6 |
| 20260902003721 | 86 | 21 | 1.7 | 2.6 | 0.00 | 0.00 | 0.00 | 64 | 1015.6 |
| 20260902003217 | 87 | 29 | 1.7 | 3.5 | 0.00 | 0.00 | 0.00 | 64 | 1015.6 |
| 20260902002712 | 87 | 57 | 1.7 | 3.5 | 0.00 | 0.00 | 0.00 | 63 | 1015.7 |
| 20260902002212 | 87 | 30 | 1.7 | 3.5 | 0.00 | 0.00 | 0.00 | 63 | 1015.6 |
| 20260902001708 | 87 | 20 | 1.7 | 2.6 | 0.00 | 0.00 | 0.00 | 62 | 1015.8 |
| 20260902001207 | 88 | 27 | 1.7 | 3.5 | 0.00 | 0.00 | 0.00 | 60 | 1015.6 |
| 20260902000702 | 88 | 348 | 1.7 | 2.6 | 0.00 | 0.00 | 0.00 | 61 | 1015.8 |
| 20260902000157 | 88 | 31 | 2.6 | 2.6 | 0.00 | 0.00 | 0.00 | 61 | 1015.7 |
| 20260901235657 | 88 | 19 | 3.5 | 3.5 | 0.00 | 0.00 | 0.00 | 61 | 1015.8 |
| 20260901235152 | 89 | 30 | 3.5 | 3.5 | 0.00 | 0.00 | 0.00 | 60 | 1015.7 |
| 20260901234651 | 89 | 27 | 2.6 | 3.5 | 0.00 | 0.00 | 0.00 | 58 | 1016.1 |
| 20260901234146 | 89 | 14 | 1.7 | 3.5 | 0.00 | 0.00 | 0.00 | 58 | 1016.0 |
| 20260901233641 | 90 | 48 | 1.7 | 3.5 | 0.00 | 0.00 | 0.00 | 56 | 1015.8 |
| 20260901233137 | 90 | 358 | 0.9 | 2.6 | 0.00 | 0.00 | 0.00 | 57 | 1015.9 |
| 20260901232632 | 91 | 17 | 2.6 | 3.5 | 0.00 | 0.00 | 0.00 | 56 | 1015.9 |
| 20260901232127 | 91 | 20 | 2.6 | 2.6 | 0.00 | 0.00 | 0.00 | 55 | 1015.9 |